W4GHW Weather Reports


Display with metric or nautical units.
time (UTC)temp
F
wind
direction
speed
MPH
gust
MPH
rain 1hr
in
rain 24hr
in
rain mn
in
humidity
%
barometer
mb
20260510063004 65 242 1.0 2.0 0.00 0.39 0.00 92 1015.7
20260510062004 65 220 0.0 2.0 0.00 0.39 0.00 92 1015.8
20260510061004 65 220 0.0 2.0 0.00 0.39 0.00 92 1015.7
20260510060004 65 220 1.0 3.0 0.00 0.39 0.00 92 1015.4
20260510055003 65 355 0.0 2.0 0.00 0.39 0.00 92 1014.6
20260510054004 65 355 1.0 3.0 0.00 0.39 0.00 92 1014.3
20260510053004 65 345 2.0 5.0 0.00 0.39 0.00 92 1014.5
20260510051004 65 330 0.0 1.0 0.00 0.39 0.00 92 1015.6
20260510050004 65 330 0.0 1.0 0.00 0.39 0.00 92 1015.5
20260510045004 65 330 0.0 1.0 0.00 0.39 0.00 92 1015.3
20260510044004 65 330 0.0 2.0 0.00 0.39 0.00 92 1015.4
20260510043004 65 263 0.0 1.0 0.00 0.39 0.00 92 1014.8
20260510042005 65 263 0.0 1.0 0.00 0.39 0.00 92 1015.0
20260510041004 65 263 0.0 2.0 0.00 0.39 0.00 92 1015.5
20260510040004 65 292 0.0 2.0 0.00 0.39 0.00 92 1015.8
20260510035004 65 292 1.0 2.0 0.00 0.39 0.39 92 1016.0
20260510032003 65 268 1.0 3.0 0.00 0.39 0.39 92 1016.2
20260510031004 65 268 0.0 3.0 0.00 0.39 0.39 92 1016.2
20260510030004 65 324 1.0 2.0 0.00 0.39 0.39 92 1015.9
20260510025003 65 324 0.0 0.0 0.00 0.39 0.39 92 1015.8
20260510023004 65 324 0.0 1.0 0.00 0.40 0.39 92 1015.8
20260510022004 65 324 0.0 0.0 0.00 0.40 0.39 92 1015.6
20260510021004 65 324 0.0 0.0 0.00 0.40 0.39 92 1015.4
20260510020004 65 324 0.0 2.0 0.00 0.40 0.39 92 1015.3
20260510015005 65 243 0.0 0.0 0.00 0.40 0.39 92 1015.2
20260510014004 65 238 0.0 1.0 0.00 0.40 0.39 92 1014.9
20260510012004 66 238 0.0 2.0 0.00 0.40 0.39 92 1014.7
20260510011004 66 238 0.0 2.0 0.00 0.40 0.39 92 1014.8
20260510010004 66 238 0.0 2.0 0.00 0.40 0.39 92 1014.7
20260510005003 66 238 0.0 1.0 0.00 0.40 0.39 92 1014.6
20260510004003 66 238 1.0 1.0 0.00 0.41 0.39 92 1014.7
20260510002004 66 301 0.0 2.0 0.00 0.41 0.39 92 1014.5
20260510001003 66 290 1.0 3.0 0.00 0.41 0.39 92 1014.6
20260509235003 66 270 0.0 2.0 0.00 0.43 0.39 92 1014.0
20260509234003 66 293 1.0 3.0 0.00 0.47 0.39 92 1014.0
20260509233003 66 176 1.0 6.0 0.00 0.50 0.39 92 1013.5
20260509232004 66 149 3.0 6.0 0.00 0.51 0.39 92 1013.6
20260509231004 66 157 0.0 2.0 0.00 0.52 0.39 92 1013.8
20260509230004 66 302 0.0 1.0 0.00 0.54 0.39 92 1014.1
20260509225004 66 302 0.0 1.0 0.00 0.55 0.39 92 1014.4
20260509224004 66 302 0.0 2.0 0.00 0.56 0.39 92 1014.2
20260509222004 66 304 1.0 3.0 0.00 0.56 0.39 92 1013.9
20260509220004 66 305 2.0 3.0 0.00 0.56 0.39 92 1013.8
20260509214003 66 281 2.0 6.0 0.01 0.56 0.39 92 1013.5
20260509213004 66 27 1.0 3.0 0.01 0.56 0.39 92 1013.1
20260509210004 65 318 0.0 3.0 0.02 0.56 0.39 92 1012.9
20260509204004 65 33 0.0 3.0 0.01 0.55 0.38 92 1013.1
20260509203004 65 20 2.0 3.0 0.01 0.55 0.38 92 1013.4
20260509202004 65 314 2.0 3.0 0.02 0.55 0.38 92 1013.9
20260509201004 65 272 1.0 6.0 0.04 0.55 0.38 92 1013.9
20260509194004 66 179 3.0 12.0 0.05 0.54 0.37 92 1014.1
20260509193004 66 181 2.0 10.0 0.05 0.54 0.37 92 1014.3
20260509192003 66 186 5.0 12.0 0.04 0.53 0.36 92 1014.5
20260509191004 66 161 2.0 8.0 0.02 0.51 0.34 92 1014.5
20260509185004 66 180 2.0 7.0 0.02 0.49 0.32 92 1015.0
20260509184004 66 204 3.0 6.0 0.03 0.49 0.32 92 1015.2
20260509182004 67 224 2.0 9.0 0.04 0.49 0.32 92 1015.1
20260509180004 66 223 1.0 3.0 0.04 0.48 0.31 92 1015.0
20260509175004 67 226 1.0 3.0 0.03 0.47 0.30 92 1015.5
20260509174004 67 251 1.0 6.0 0.03 0.46 0.29 92 1015.6
20260509173004 66 235 2.0 3.0 0.04 0.46 0.29 92 1015.3
20260509172004 66 244 2.0 3.0 0.03 0.45 0.28 92 1015.5
20260509171004 66 202 2.0 6.0 0.02 0.44 0.27 92 1015.4
20260509170004 66 249 2.0 6.0 0.02 0.44 0.27 92 1015.9
20260509165004 66 249 2.0 6.0 0.02 0.44 0.27 92 1015.7
20260509164004 66 219 2.0 5.0 0.02 0.43 0.26 92 1015.7
20260509163004 66 283 2.0 6.0 0.01 0.42 0.25 92 1015.4
20260509162004 66 279 2.0 6.0 0.02 0.42 0.25 92 1015.5
20260509161003 66 245 1.0 3.0 0.03 0.42 0.25 92 1015.5
20260509160004 66 11 1.0 8.0 0.03 0.42 0.25 92 1015.1
20260509155004 66 151 2.0 6.0 0.03 0.42 0.25 92 1014.8
20260509154004 65 129 4.0 10.0 0.02 0.41 0.24 92 1014.3
20260509153004 65 153 4.0 8.0 0.05 0.41 0.24 92 1014.4
20260509152004 65 126 1.0 3.0 0.06 0.40 0.23 92 1015.2
20260509151004 65 223 0.0 3.0 0.19 0.39 0.22 92 1015.7
20260509150004 65 244 2.0 6.0 0.20 0.39 0.22 92 1015.8
20260509145004 65 304 3.0 7.0 0.20 0.39 0.22 92 1015.7
20260509143004 64 291 3.0 9.0 0.18 0.36 0.19 92 1015.7
20260509142005 64 278 3.0 6.0 0.16 0.34 0.17 91 1015.8
20260509141003 65 276 3.0 5.0 0.03 0.20 0.03 91 1015.7
20260509140005 65 343 2.0 3.0 0.02 0.19 0.02 92 1015.1
20260509135004 65 263 1.0 3.0 0.02 0.19 0.02 92 1015.1
20260509134004 64 270 2.0 5.0 0.02 0.19 0.02 92 1015.5
20260509133004 64 294 2.0 8.0 0.01 0.18 0.01 92 1015.4
20260509132004 64 302 3.0 7.0 0.01 0.18 0.01 92 1015.3
20260509131004 64 254 2.0 7.0 0.00 0.17 0.00 92 1015.7
20260509130004 64 299 2.0 3.0 0.00 0.17 0.00 92 1015.2
20260509124004 64 285 1.0 2.0 0.00 0.17 0.00 92 1015.1
20260509121005 63 207 1.0 2.0 0.00 0.17 0.00 92 1014.8
20260509120005 63 161 0.0 1.0 0.00 0.17 0.00 92 1014.8
20260509115005 63 161 0.0 2.0 0.00 0.17 0.00 92 1014.4
20260509114004 63 139 1.0 2.0 0.00 0.17 0.00 92 1014.3
20260509113005 62 125 1.0 2.0 0.00 0.17 0.00 92 1014.2
20260509112005 62 125 0.0 1.0 0.00 0.17 0.00 92 1014.3
20260509111005 62 125 0.0 2.0 0.00 0.17 0.00 92 1014.1
20260509110004 62 125 1.0 2.0 0.00 0.17 0.00 92 1013.9
20260509105004 62 138 1.0 1.0 0.00 0.17 0.00 92 1014.0
20260509104004 62 218 0.0 2.0 0.00 0.17 0.00 92 1014.3
20260509103004 62 218 0.0 2.0 0.00 0.17 0.00 92 1013.9
20260509102005 62 218 0.0 2.0 0.00 0.17 0.00 92 1013.7
20260509100006 61 161 2.0 3.0 0.00 0.17 0.00 92 1013.3
20260509095004 61 143 1.0 3.0 0.00 0.17 0.00 92 1013.1
20260509094004 61 124 0.0 2.0 0.00 0.17 0.00 92 1013.2
20260509093005 60 124 0.0 0.0 0.00 0.17 0.00 92 1013.2
20260509092004 60 124 0.0 1.0 0.00 0.17 0.00 92 1013.2
20260509091005 60 153 0.0 0.0 0.00 0.17 0.00 92 1013.2
20260509090004 60 152 0.0 0.0 0.00 0.17 0.00 92 1013.0
20260509085005 61 152 0.0 0.0 0.00 0.17 0.00 92 1013.1
20260509084005 61 152 0.0 1.0 0.00 0.17 0.00 92 1013.2
20260509083005 61 152 0.0 1.0 0.00 0.17 0.00 91 1013.4
20260509082005 61 152 0.0 0.0 0.00 0.17 0.00 92 1013.4
20260509081005 61 152 0.0 1.0 0.00 0.17 0.00 91 1013.5
20260509080005 61 152 0.0 1.0 0.00 0.17 0.00 91 1013.4
20260509075005 61 152 0.0 0.0 0.00 0.17 0.00 91 1013.3
20260509074004 61 138 0.0 1.0 0.00 0.17 0.00 91 1013.0
20260509073005 61 104 0.0 1.0 0.00 0.17 0.00 91 1012.8
20260509072005 61 98 0.0 2.0 0.00 0.17 0.00 91 1012.9
20260509071004 62 5 0.0 2.0 0.00 0.17 0.00 91 1013.2
20260509070004 62 5 0.0 2.0 0.00 0.17 0.00 91 1013.2
20260509065005 62 331 0.0 2.0 0.00 0.17 0.00 91 1012.9
20260509064005 62 11 1.0 3.0 0.00 0.17 0.00 91 1012.9